Meteo Giornale » Osservazioni meteo Ecuador » Guayaquil-Simon Bolivar
ore: 12:00 - Osservazioni Meteo Guayaquil-Simon Bolivar
Lat. 2° 9' S Lon. 79° 53' W Alt. 4 metri s.l.m.
26 °C
Pioggia
Temp. 24 Ore
24 °C
33 °C
Nord
7.4 Km/h
Dew point 24 °C
Umidità 88 %
Visibilità 10 Km
Il sole sorge alle ore 06:17
Il sole tramonta alle ore 18:21
| Data e Ora | Cielo e Fenomeni | T °C | DP °C | Um. % | Pres. hPa | Vis. km | Vento km/h | |
|---|---|---|---|---|---|---|---|---|
| Oggi h: 12:00 | Pioggia | 26 | 24 | 88 | 0 | 10 | N 7.4 | |
| Oggi h: 11:00 | Coperto | 26 | 23 | 83 | 1012 | 10 | S/SO 13 | |
| Oggi h: 10:00 | Coperto | 24 | 23 | 94 | 1013 | 10 | S/SO 9.3 | |
| Oggi h: 09:42 | Pioggia | 24 | 23 | 94 | 1013 | 10 | S/SO 9.3 | |
| Oggi h: 09:00 | Pioggia | 24 | 23 | 94 | 1013 | 6 | N 5.5 | |
| Oggi h: 08:20 | Pioggia | 24 | 23 | 94 | 1013 | 6 | N 3.7 | |
| Oggi h: 08:00 | Pioggia | 24 | 23 | 94 | 1013 | 6 | N 3.7 | |
| Oggi h: 07:25 | Pioviggine | 25 | 22 | 83 | 1012 | 8 | N 5.5 | |
| Oggi h: 07:00 | Pioggia nelle vicinanze | 25 | 22 | 83 | 1012 | 10 | N 5.5 | |
| Oggi h: 06:00 | Molto Nuvoloso | 25 | 22 | 83 | 1012 | 10 | NO 7.4 | |
| Oggi h: 05:00 | Molto Nuvoloso | 25 | 23 | 88 | 1011 | 10 | N 9.3 | |
| Oggi h: 04:00 | Molto Nuvoloso | 25 | 23 | 88 | 1011 | 10 | N/NO 9.3 | |
| Oggi h: 03:00 | Molto Nuvoloso | 25 | 22 | 83 | 1011 | 10 | N 5.5 | |
| Oggi h: 02:00 | Molto Nuvoloso | 26 | 21 | 73 | 1011 | 10 | SO 9.3 | |
| Oggi h: 01:00 | Molto Nuvoloso | 26 | 21 | 73 | 1012 | 10 | SO 13 | |
| Oggi h: 00:00 | Molto Nuvoloso | 26 | 21 | 73 | 1012 | 10 | SO 9.3 | |
| Ieri h: 23:00 | Nuvoloso | 26 | 21 | 73 | 1012 | 10 | SO 9.3 | |
| Ieri h: 22:00 | Nuvoloso | 27 | 21 | 69 | 1012 | 10 | SO 13 | |
| Ieri h: 21:00 | Nuvoloso | 27 | 21 | 69 | 1011 | 10 | SO 14.8 | |
| Ieri h: 20:00 | Nuvoloso | 27 | 21 | 69 | 1010 | 10 | O/SO 18.5 | |
| Ieri h: 19:00 | Nuvoloso | 29 | 22 | 66 | 1009 | 10 | SO 22.2 | |
| Ieri h: 18:00 | Nuvoloso | 30 | 22 | 62 | 1008 | 10 | SO 27.8 | |
| Ieri h: 17:00 | Molto Nuvoloso | 32 | 23 | 59 | 1008 | 10 | SO 24 | |
| Ieri h: 16:00 | Molto Nuvoloso | 32 | 23 | 59 | 1007 | 10 | S/SE 13 | |
| Ieri h: 15:00 | Molto Nuvoloso | 32 | 23 | 59 | 1008 | 10 | S/SE 11.1 | |
| Ieri h: 14:00 | Molto Nuvoloso | 33 | 23 | 55 | 1009 | 10 | SE 11.1 | |
| Ieri h: 13:00 | Molto Nuvoloso | 32 | 23 | 59 | 1010 | 10 | SE 16.7 | |



